OH2FDL-2 Weather Reports


Display with metric or nautical units.
time (UTC)temp
F
wind
direction
speed
MPH
gust
MPH
rain 1hr
in
rain 24hr
in
rain mn
in
humidity
%
barometer
mb
20260507211518 40 0.0 0.0 0.00 0.00 0.00 56 1014.9
20260507210018 40 0.0 0.0 0.00 0.00 0.00 55 1014.7
20260507203019 41 0.0 0.0 0.00 0.00 0.00 55 1014.3
20260507201518 41 0.0 0.0 0.00 0.00 0.00 55 1014.2
20260507200018 40 0.0 0.0 0.00 0.00 0.00 55 1013.9
20260507194518 38 0.0 0.0 0.00 0.00 0.00 54 1013.7
20260507193018 39 0.0 0.0 0.00 0.00 0.00 53 1013.5
20260507183017 44 0.0 0.0 0.00 0.00 0.00 46 1012.8
20260507181518 45 0.0 0.0 0.00 0.00 0.00 44 1012.7
20260507174518 48 0.0 0.0 0.00 0.00 0.00 41 1012.4
20260507173018 49 0.0 0.0 0.00 0.00 0.00 40 1012.3
20260507171518 50 0.0 0.0 0.00 0.00 0.00 39 1012.3
20260507170019 51 0.0 0.0 0.00 0.00 0.00 37 1012.2
20260507164518 52 0.0 0.0 0.00 0.00 0.00 36 1012.1
20260507163018 53 0.0 0.0 0.00 0.00 0.00 35 1012.1
20260507161518 54 0.0 0.0 0.00 0.00 0.00 34 1012.0
20260507160018 55 0.0 0.0 0.00 0.00 0.00 34 1011.9
20260507154518 56 0.0 0.0 0.00 0.00 0.00 33 1011.8
20260507153018 57 0.0 0.0 0.00 0.00 0.00 33 1011.6
20260507144517 59 0.0 0.0 0.00 0.00 0.00 32 1011.5
20260507143019 60 0.0 0.0 0.00 0.00 0.00 33 1011.5
20260507141518 60 0.0 0.0 0.00 0.00 0.00 34 1011.5
20260507134523 61 0.0 0.0 0.00 0.00 0.00 35 1011.4
20260507133018 61 0.0 0.0 0.00 0.00 0.00 36 1011.3
20260507131518 61 0.0 0.0 0.00 0.00 0.00 36 1011.3
20260507130018 60 0.0 0.0 0.00 0.00 0.00 36 1011.3
20260507123023 59 0.0 0.0 0.00 0.00 0.00 38 1011.3
20260507121523 59 0.0 0.0 0.00 0.00 0.00 39 1011.2
20260507120017 58 0.0 0.0 0.00 0.00 0.00 40 1011.2
20260507114517 57 0.0 0.0 0.00 0.00 0.00 40 1011.3
20260507113018 56 0.0 0.0 0.00 0.00 0.00 40 1011.2
20260507111518 56 0.0 0.0 0.00 0.00 0.00 39 1011.2
20260507110018 56 0.0 0.0 0.00 0.00 0.00 38 1011.2
20260507104523 56 0.0 0.0 0.00 0.00 0.00 39 1011.2
20260507103022 56 0.0 0.0 0.00 0.00 0.00 39 1011.3
20260507100017 58 0.0 0.0 0.00 0.00 0.00 39 1011.2
20260507094518 59 0.0 0.0 0.00 0.00 0.00 41 1011.2
20260507093018 61 0.0 0.0 0.00 0.00 0.00 42 1011.3
20260507091518 61 0.0 0.0 0.00 0.00 0.00 44 1011.4
20260507090023 61 0.0 0.0 0.00 0.00 0.00 49 1011.5
20260507084518 58 0.0 0.0 0.00 0.00 0.00 54 1011.6
20260507083019 54 0.0 0.0 0.00 0.00 0.00 59 1011.6
20260507080017 50 0.0 0.0 0.00 0.00 0.00 63 1011.6
20260507074518 50 0.0 0.0 0.00 0.00 0.00 67 1011.7
20260507073018 49 0.0 0.0 0.00 0.00 0.00 68 1011.8
20260507071523 48 0.0 0.0 0.00 0.00 0.00 72 1011.9
20260507070017 48 0.0 0.0 0.00 0.00 0.00 76 1011.8
20260507064518 46 0.0 0.0 0.00 0.00 0.00 79 1011.8
20260507063018 46 0.0 0.0 0.00 0.00 0.00 83 1011.8
20260507061518 45 0.0 0.0 0.00 0.00 0.00 87 1011.8
20260507060018 43 0.0 0.0 0.00 0.00 0.00 91 1011.7
20260507054524 42 0.0 0.0 0.00 0.00 0.00 94 1011.8
20260507053023 40 0.0 0.0 0.00 0.00 0.00 97 1011.7
20260507051518 40 0.0 0.0 0.00 0.00 0.00 10 1011.8
20260507044517 36 0.0 0.0 0.00 0.00 0.00 10 1011.6
20260507043017 34 0.0 0.0 0.00 0.00 0.00 10 1011.7
20260507041518 33 0.0 0.0 0.00 0.00 0.00 10 1011.7
20260507040018 31 0.0 0.0 0.00 0.00 0.00 10 1011.6
20260507031519 28 0.0 0.0 0.00 0.00 0.00 10 1011.5
20260507030018 27 0.0 0.0 0.00 0.00 0.00 10 1011.3
20260507024517 26 0.0 0.0 0.00 0.00 0.00 10 1011.3
20260507021522 26 0.0 0.0 0.00 0.00 0.00 10 1011.3
20260507020018 26 0.0 0.0 0.00 0.00 0.00 10 1011.3
20260507013018 26 0.0 0.0 0.00 0.00 0.00 10 1011.2
20260507011518 27 0.0 0.0 0.00 0.00 0.00 10 1011.2
20260507010018 27 0.0 0.0 0.00 0.00 0.00 10 1011.2
20260507004518 27 0.0 0.0 0.00 0.00 0.00 10 1011.1
20260506233018 29 0.0 0.0 0.00 0.00 0.00 10 1010.9
20260506231518 29 0.0 0.0 0.00 0.00 0.00 10 1010.9
20260506230022 30 0.0 0.0 0.00 0.00 0.00 10 1010.9
20260506224519 30 0.0 0.0 0.00 0.00 0.00 10 1010.9
20260506223018 31 0.0 0.0 0.00 0.00 0.00 10 1010.9
20260506220018 32 0.0 0.0 0.00 0.00 0.00 10 1010.7
20260506213018 32 0.0 0.0 0.00 0.00 0.00 99 1010.5